Preview of NWS' New Version of Forecast
This preview is not operational and should not be used for support decisions.

Regional Weather Roundup (RWR)

Issued by National Weather Service (NWS)

                            
000
ASCA42 TJSJ 182010
RWRPR 
PUERTO RICO/U.S. VIRGIN ISLANDS HOURLY WEATHER ROUNDUP
NATIONAL WEATHER SERVICE SAN JUAN PR
400 PM AST MON FEB 18 2019

PRZ001>002-007>008-010-182100-
PUERTO RICO
  
CITY           SKY/WX    TMP DP  RH WIND       PRES   REMARKS
SAN JUAN LMM   MOSUNNY   81  72  74 E10       30.09F                  
AGUADILLA      MOSUNNY   84  73  70 E20       30.09S HX  91           
CEIBA          MOSUNNY   81  70  69 E15G22    30.10                   
$$

VIZ001>002-182100-
U.S. VIRGIN ISLANDS
  
CITY           SKY/WX    TMP DP  RH WIND       PRES   REMARKS
CHARLOTTE AMA  MOSUNNY   82  66  57 E16G22    30.08S                  
CHRISTIANSTED  MOSUNNY   84  70  61 E18G26    30.08F                  
$$

HOURLY WEATHER ROUNDUP FOR THE NEWS MEDIA
  
CITY           SKY/WX    TMP DP  RH WIND       PRES   REMARKS
ORLANDO        FAIR      85  67  54 S7        30.08F                  
NEW YORK       LGT RAIN  42  33  70 W21G28    29.89                   
NEWARK         PTSUNNY   44  31  60 W23G32    29.90R                  
CHICAGO        PTSUNNY   30  16  56 CALM      30.37R                  
HARTFORD       FLURRIES  34  33  96 N6        29.81R WCI  29          
BOSTON         LGT SNOW  29  24  82 NW10      29.84  WCI  20          
DALLAS         CLOUDY    43  24  47 NE8       30.31F                  
PHILADELPHIA   PTSUNNY   43  26  51 W24G43    29.99R                  
LOS ANGELES    MOSUNNY   57  30  35 SE6       30.05F                  
WASHINGTON DC  PTSUNNY   43  26  51 NW17G25   30.09R